Regional Weather Roundup
Issued by NWS Jackson, KY

Home | Current Version | Previous Version | Text Only | Print | Product List | Glossary Off
Versions: 1 2 3 4 5 6 7 8 9 10 11 12 13 14 15 16 17 18 19 20 21 22 23 24 25 26 27 28 29 30 31 32 33 34 35 36 37 38 39 40 41 42 43 44 45 46 47 48 49 50

000
ASUS43 KJKL 220819
RWRJKL

EAST KENTUCKY HOURLY WEATHER ROUNDUP
NATIONAL WEATHER SERVICE JACKSON KY
400 AM EDT FRI AUG 22 2014

NOTE: "FAIR" INDICATES FEW OR NO CLOUDS BELOW 12,000 FEET WITH
NO SIGNIFICANT WEATHER AND/OR OBSTRUCTIONS TO VISIBILITY.

* THESE REPORTS ARE NOT UNDER NWS QUALITY CONTROL AND MAY NOT
  REPORT WEATHER SUCH AS PRECIPITATION AND FOG.

KYZ079-080-083-085-087-088-110-112-115-119-120-220900
...EASTERN KENTUCKY...

CITY           SKY/WX    TMP DP  RH WIND       PRES   REMARKS
JACKSON        CLOUDY    72  69  90 CALM      30.07S
LONDON         MOCLDY    73  69  87 CALM      30.07F
SOMERSET*      MOCLDY    70  70 100 CALM      30.07F FOG
MONTICELLO*    MOCLDY    69  69 100 CALM      30.08F
WILLIAMSBURG*  CLEAR     72  72 100 CALM      30.08F
MIDDLESBORO*   CLOUDY    69  69 100 CALM      30.10S FOG
HARLAN APT*    CLOUDY    68  66  94 MISG      30.11F VSB<1/4
HAZARD APT*    SUNNY     72  72 100 SW5       30.07
BLACK MTN*       N/A     66  64  94 W5          N/A
PIKEVILLE APT* CLEAR     70  68  94 S3        30.07F
BIG SANDY*     PTSUNNY   71  69  95 S3        30.05F
MOREHEAD APT*  CLOUDY    72  70  94 CALM      30.06F
ASHLAND*       MOCLDY    72  68  88 CALM      30.00
$$

KYZ035-036-041-042-044-050-067-078-099-220900
...CENTRAL KENTUCKY...

CITY           SKY/WX    TMP DP  RH WIND       PRES   REMARKS
MT STERLING*   CLOUDY    75  72  88 W5        30.05S
FLEMING/MASON* MOCLDY    70  70 100 S3        30.02F
DANVILLE*      MOCLDY    75  70  83 SW6       30.05F
RICHMOND*      MOCLDY    75  70  83 SW5       30.04F
LEXINGTON      MOCLDY    76  71  85 SW6       30.03F
FRANKFORT      MOCLDY    74  71  91 SW5       30.01F
$$

KYZ091>093-OHZ055-061-077-WVZ005-015-034-035-042-220900
...SOUTHERN OHIO/WEST VIRGINIA...

CITY           SKY/WX    TMP DP  RH WIND       PRES   REMARKS
COVINGTON      CLOUDY    71  69  93 S7        30.00F
COLUMBUS       CLOUDY    71  67  87 W3        29.97F
DAYTON         LGT RAIN  71  69  93 W7        29.99F
WILMINGTON     CLOUDY    71  66  84 W7        29.98F
HUNTINGTON     RAIN      71  70  96 W6        30.03R FOG
CHARLESTON     MOCLDY    69  69 100 CALM      30.02S FOG
PINEVILLE*     FOG       68  68 100 MISG      30.14F VSB 3/4
BECKLEY        PTCLDY    67  64  90 SW8       30.12F
BLUEFIELD      PTCLDY    69  65  86 W7        30.15F
$$

VAZ002-007-008-TNZ017-027-036-066-071-220900
...SOUTHWEST VIRGINIA/EAST TENNESSEE...

CITY           SKY/WX    TMP DP  RH WIND       PRES   REMARKS
WISE*          MOCLDY    70  70 100 W7        30.16F
JONESVILLE*      N/A     66  66 100 CALM      30.13S
ABINGDON*      PTCLDY    68  68 100 CALM      30.13F FOG
BRISTOL        FOG       72  70  93 CALM      30.11S VSB 1/2
KNOXVILLE      CLEAR     74  69  85 W5        30.07F
OAK RIDGE      PTCLDY    74  72  93 CALM      30.09F
CROSSVILLE     PTCLDY    71  68  90 CALM      30.14F
NASHVILLE      PTCLDY    76  73  91 CALM      30.06F
$$

...KEY TO REMARKS...
VSB - VISIBILITY IN MILES
WCI - WIND CHILL INDEX
HX  - HEAT INDEX

$$



USA.gov is the U.S. government's official web portal to all federal, state and local government web resources and services.